Aérodrome :
LOGIN :

S'inscrire | Disclaimer

   EN    FR    IT 

 










Légende :    VFR   VFR Marginal   IFR   IFR Intensif   IFR Très Intensif
Visi : 
Plafond : 
>= 8 km
>= 3000ft
5 à 8 km
1000 à 3000 ft
1500m à 5 km
500 à 1000 ft
800 à 1500m
200 à 500 ft
< 800m
< 200 ft
Symboles :   Orages  Brouillard  Fortes neiges  Fortes précipitations  Vent > 20 kt
SIGMETs :   Divers  Orages  Givrage  Turbulence  Onde Orograph.  Cendres Volcan.







- Altitude de l'aérodrome : 1325 ft
- Code IATA : EBU
- Voir les cartes d'approche


LFMH - St-Etienne Boutheon

DERNIER METAR :
  • 191100Z AUTO 32003KT 240V010 CAVOK 04/M02 Q1018 NOSIG

METARs EXPIRÉS :
  • 191030Z AUTO VRB03KT CAVOK 04/M01 Q1018 NOSIG
  • 191000Z AUTO VRB02KT CAVOK 04/M02 Q1018 NOSIG
  • 190930Z AUTO 00000KT CAVOK 03/M02 Q1018 NOSIG
  • 190900Z AUTO 00000KT CAVOK 02/M01 Q1018 NOSIG
  • 190830Z AUTO VRB02KT CAVOK 01/M01 Q1019 NOSIG

TAF TAF LFMH
Valide du 19 à 09h jusqu'au 20 à 09h UTC


190800Z 1909/2009 VRB02KT CAVOK
BECMG 1912/1914 36006KT
TEMPO 2001/2009 3000 -SN OVC005
ATIS : +33 4 77 36 17 51
Pas de NOTAMs connus pour ce terrain.



MET'MAP, la Météo Aéronautique d'un coup d'oeil ! - Copyright ORBIFLY Décembre 2007 - Disclaimer

ORBIFLY MET'MAP TEAM :

Programmation & Développement : Alexandra Zaïnal
Conception & Développement : Baudouin d'Aumeries
Co-Programmation & Développement : Marc-Olivier Méhu
Soutien technique & logistique : Manuel Goepfert

Contact : metmap@orbifly.com




SOURCES & CREDITS :

   NOAA